Hourly Data Report for October 10, 2013

All times are specified in Local Standard Time (LST). Add 1 hour to adjust for Daylight Saving Time where and when it is observed.

CAPE DORSET A
NUNAVUT

64°13'49.000" N
76°31'30.000" W
48.20 m
2400637
71366
YTE

Download Data

Hourly Data (October 2013)
Hourly Data Report for October 10, 2013
Temp Definition
°C
Dew Point Temp Definition
°C
Rel Hum Definition
%
Wind Dir Definition
10's deg

Wind Spd Definition
km/h
Visibility Definition
km
Stn Press Definition
kPa
Hmdx Definition


Wind Chill Definition


Weather Definition


TIME
00:00 Legend Double Dagger -3.4 -7.0 76 30 18 16.1 100.96   -9 LegendNANA
01:00 Legend Double Dagger -3.5 -7.0 77 29 18 16.1 101.02   -9 LegendNANA
02:00 Legend Double Dagger -3.7 -7.1 77 28 18 16.1 101.12   -10 LegendNANA
03:00 Legend Double Dagger -3.4 -7.1 75 29 17 16.1 101.20   -9 LegendNANA
04:00 Legend Double Dagger -4.2 -7.0 81 26 9 16.1 101.25   -8 LegendNANA
05:00 Legend Double Dagger -3.3 -7.9 71 31 18 16.1 101.32   -9 LegendNANA
06:00 Legend Double Dagger -3.9 -7.9 74 29 11 16.1 101.37   -8 LegendNANA
07:00 Legend Double Dagger -4.7 -7.7 80 24 8 16.1 101.42   -8 LegendNANA
08:00 Legend Double Dagger -4.7 -7.4 81 26 5 16.1 101.48   -7 LegendNANA
09:00 Legend Double Dagger -3.3 -6.6 78 28 17 16.1 101.55   -9 LegendNANA
10:00 Legend Double Dagger -3.4 -6.5 79 28 13 16.1 101.57   -8 LegendNANA
11:00 Legend Double Dagger -2.2 -7.4 68 30 15 16.1 101.62   -7 LegendNANA
12:00 Legend Double Dagger -2.1 -7.6 66 30 22 16.1 101.64   -8 LegendNANA
13:00 Legend Double Dagger -2.2 -7.3 68 31 17 16.1 101.68   -8 LegendNANA
14:00 Legend Double Dagger -2.3 -8.2 64 30 24 16.1 101.74   -9 LegendNANA
15:00 Legend Double Dagger -2.5 -8.2 65 31 21 16.1 101.78   -9 LegendNANA
16:00 Legend Double Dagger -2.5 -8.1 65 29 15 16.1 101.82   -7 LegendNANA
17:00 Legend Double Dagger -2.7 -8.1 67 27 17 16.1 101.85   -8 LegendNANA
18:00 Legend Double Dagger -3.9 -7.7 75 28 13 16.1 101.89   -9 LegendNANA
19:00 Legend Double Dagger -4.5 -8.3 75 27 9 16.1 101.91   -8 LegendNANA
20:00 Legend Double Dagger -4.4 -7.8 77 27 9 16.1 101.94   -8 LegendNANA
21:00 Legend Double Dagger -4.6 -8.4 75 27 8 16.1 101.96   -8 LegendNANA
22:00 Legend Double Dagger -4.5 -7.8 78 25 4 16.1 101.99   -6 LegendNANA
23:00 Legend Double Dagger -3.7 -7.3 76 LegendMM 4 16.1 102.03   -5 LegendNANA

Notes on Data Quality.

Legend

  • E = Estimated
  • M = Missing
  • NA = Not Available
  • ‡ = Partner data that is not subject to review by the National Climate Archives
Date modified: